Simultaneous Nadir Overpasses (SNOs) Predictions

Prediction of SNOs between METOP-A and NOAA-19 Satellite Orbit:

Table of predicted SNOs for the next 14.0 days since TLE Epoch: 2/13/2021
Index Date (METOP-A) Time (METOP-A) Lat,Lon (METOP-A) SZA (METOP-A ) Date (NOAA-19) Time (NOAA-19) Lat,Lon (NOAA-19) SZA (NOAA-19 ) Distance(km) Time Diff (sec)
1 02/23/2021 00:36:22 80.84,-177.47 90.69 02/23/2021 00:35:11 80.85,-177.41 90.70 1.55 71
2 02/23/2021 01:27:03 -80.84, -10.07 89.32 02/23/2021 01:26:11 -80.85, -10.17 89.32 1.86 52
3 02/23/2021 02:17:43 80.85, 157.39 90.69 02/23/2021 02:17:11 80.84, 157.25 90.68 2.56 32
4 02/23/2021 03:08:25 -80.83, -35.56 89.36 02/23/2021 03:08:11 -80.84, -35.51 89.34 1.82 14
5 02/23/2021 03:59:05 80.84, 131.90 90.65 02/23/2021 03:59:11 80.84, 131.91 90.65 0.49 6
6 02/23/2021 04:49:46 -80.84, -60.70 89.37 02/23/2021 04:50:11 -80.84, -60.85 89.37 2.55 25
7 02/23/2021 05:40:27 80.83, 106.42 90.61 02/23/2021 05:41:11 80.84, 106.56 90.63 2.96 44



Historial Predications of SNOs between METOP-A and NOAA-19
